GW0175 Weather Reports


Display with metric or nautical units.
time (UTC)temp
F
wind
direction
speed
MPH
gust
MPH
rain 1hr
in
rain 24hr
in
rain mn
in
humidity
%
barometer
mb
20260505153112 74 131 2.0 5.0 0.00 0.00 0.00 38 1007.3
20260505152609 74 303 0.0 4.0 0.00 0.00 0.00 35 1007.2
20260505152104 73 4 4.0 5.0 0.00 0.00 0.00 36 1007.1
20260505151600 73 98 0.0 3.0 0.00 0.00 0.00 39 1007.4
20260505151058 72 29 1.0 3.0 0.00 0.00 0.00 40 1007.4
20260505150553 72 49 3.0 4.0 0.00 0.00 0.00 42 1007.4
20260505140519 70 25 3.0 9.0 0.00 0.00 0.00 37 1007.3
20260505124932 68 259 3.0 3.0 0.00 0.00 0.00 42 1006.0
20260505124429 68 261 0.0 4.0 0.00 0.00 0.00 42 1005.9
20260505123925 67 255 1.0 5.0 0.00 0.00 0.00 43 1006.0
20260505123422 66 264 1.0 5.0 0.00 0.00 0.00 45 1005.7
20260505122917 66 301 2.0 7.0 0.00 0.00 0.00 44 1005.4
20260505122416 65 286 0.0 3.0 0.00 0.00 0.00 47 1005.7
20260505121912 64 8 0.0 0.0 0.00 0.00 0.00 50 1006.0
20260505121409 65 276 0.0 4.0 0.00 0.00 0.00 46 1006.1
20260505120905 66 346 0.0 3.0 0.00 0.00 0.00 46 1005.6
20260505120402 68 300 1.0 3.0 0.00 0.00 0.00 38 1005.7
20260505115900 68 270 2.0 2.0 0.00 0.00 0.00 37 1005.7
20260505115357 68 278 1.0 2.0 0.00 0.00 0.00 37 1005.7
20260505114855 69 279 2.0 3.0 0.00 0.00 0.00 36 1005.9
20260505114351 69 254 1.0 2.0 0.00 0.00 0.00 35 1005.6
20260505113848 68 255 0.0 1.0 0.00 0.00 0.00 35 1005.4
20260505113344 68 246 0.0 2.0 0.00 0.00 0.00 35 1005.4
20260505112840 67 145 1.0 1.0 0.00 0.00 0.00 38 1005.5
20260505112338 67 227 0.0 3.0 0.00 0.00 0.00 38 1005.3
20260505111833 66 209 0.0 3.0 0.00 0.00 0.00 41 1005.5
20260505111329 65 172 0.0 3.0 0.00 0.00 0.00 43 1005.5
20260505110825 64 203 0.0 2.0 0.00 0.00 0.00 46 1005.5
20260505110323 64 90 0.0 0.0 0.00 0.00 0.00 49 1005.5
20260505101757 65 115 2.0 3.0 0.00 0.00 0.00 42 1005.5
20260505101253 64 161 2.0 3.0 0.00 0.00 0.00 47 1005.4
20260505100749 65 166 3.0 3.0 0.00 0.00 0.00 45 1005.3
20260505100246 64 145 1.0 3.0 0.00 0.00 0.00 47 1005.2
20260505095741 62 172 0.0 0.0 0.00 0.00 0.00 50 1005.3
20260505095240 63 14 0.0 3.0 0.00 0.00 0.00 53 1005.3
20260505094735 62 0 0.0 0.0 0.00 0.00 0.00 51 1005.4
20260505094231 62 81 0.0 2.0 0.00 0.00 0.00 55 1005.1
20260505093728 63 26 2.0 3.0 0.00 0.00 0.00 52 1005.3
20260505093225 63 90 0.0 0.0 0.00 0.00 0.00 51 1005.2
20260505092722 64 90 0.0 1.0 0.00 0.00 0.00 45 1005.0
20260505092221 65 157 0.0 1.0 0.00 0.00 0.00 44 1005.3
20260505091718 66 169 0.0 0.0 0.00 0.00 0.00 45 1005.1
20260505091216 66 180 0.0 0.0 0.00 0.00 0.00 44 1005.4
20260505090713 66 195 0.0 0.0 0.00 0.00 0.00 42 1005.2
20260505090211 66 188 0.0 3.0 0.00 0.00 0.00 42 1005.3
20260505085708 66 180 0.0 0.0 0.00 0.00 0.00 44 1005.4
20260505085206 66 180 0.0 1.0 0.00 0.00 0.00 46 1005.5
20260505084703 65 249 0.0 2.0 0.00 0.00 0.00 48 1005.4
20260505084202 64 249 0.0 2.0 0.00 0.00 0.00 52 1005.3
20260505083659 64 180 1.0 3.0 0.00 0.00 0.00 52 1005.4
20260505083155 64 244 4.0 4.0 0.00 0.00 0.00 52 1005.3
20260505082651 63 200 1.0 5.0 0.00 0.00 0.00 51 1005.2
20260505082148 63 241 2.0 3.0 0.00 0.00 0.00 53 1005.3
20260505081644 64 201 2.0 3.0 0.00 0.00 0.00 54 1005.4
20260505081142 63 213 2.0 3.0 0.00 0.00 0.00 56 1005.4
20260505080639 63 208 2.0 2.0 0.00 0.00 0.00 56 1005.6
20260505080135 63 257 2.0 3.0 0.00 0.00 0.00 55 1005.6
20260505075631 63 208 2.0 2.0 0.00 0.00 0.00 55 1005.5
20260505075128 63 219 3.0 3.0 0.00 0.00 0.00 57 1005.7
20260505074625 63 235 4.0 4.0 0.00 0.00 0.00 56 1005.6
20260505074122 62 230 3.0 3.0 0.00 0.00 0.00 58 1005.6
20260505073620 62 213 2.0 3.0 0.00 0.00 0.00 58 1005.6
20260505073118 62 253 3.0 3.0 0.00 0.00 0.00 59 1005.7
20260505072613 62 243 3.0 3.0 0.00 0.00 0.00 58 1005.5
20260505072110 62 245 2.0 3.0 0.00 0.00 0.00 58 1005.6
20260505071605 62 217 2.0 3.0 0.00 0.00 0.00 56 1006.0
20260505071103 63 215 1.0 2.0 0.00 0.00 0.00 55 1005.7
20260505070600 63 248 2.0 4.0 0.00 0.00 0.00 53 1005.9
20260505070056 64 225 2.0 4.0 0.00 0.00 0.00 50 1005.9
20260505065552 64 208 2.0 4.0 0.00 0.00 0.00 51 1005.7
20260505065049 64 236 2.0 3.0 0.00 0.00 0.00 52 1005.7
20260505064546 64 231 2.0 2.0 0.00 0.00 0.00 52 1005.6
20260505064045 64 220 2.0 2.0 0.00 0.00 0.00 51 1005.3
20260505063542 63 255 0.0 2.0 0.00 0.00 0.00 53 1005.5
20260505063037 63 270 0.0 0.0 0.00 0.00 0.00 58 1005.7
20260505062534 63 270 0.0 1.0 0.00 0.00 0.00 53 1005.6
20260505062031 63 246 0.0 1.0 0.00 0.00 0.00 55 1005.5
20260505061529 64 98 0.0 1.0 0.00 0.00 0.00 54 1006.0
20260505061027 64 172 0.0 0.0 0.00 0.00 0.00 51 1005.6
20260505060524 65 172 0.0 2.0 0.00 0.00 0.00 51 1005.6
20260505060020 64 209 1.0 2.0 0.00 0.00 0.00 51 1005.9
20260505055516 64 243 0.0 1.0 0.00 0.00 0.00 52 1005.7
20260505055013 64 145 0.0 0.0 0.00 0.00 0.00 53 1005.6
20260505054510 65 145 0.0 1.0 0.00 0.00 0.00 53 1005.7
20260505054008 65 154 0.0 0.0 0.00 0.00 0.00 53 1006.2
20260505053505 66 154 0.0 0.0 0.00 0.00 0.00 52 1006.0
20260505053001 66 228 0.0 2.0 0.00 0.00 0.00 49 1006.3
20260505052459 67 15 0.0 1.0 0.00 0.00 0.00 47 1006.3
20260505051956 66 299 2.0 3.0 0.00 0.00 0.00 47 1006.3
20260505051452 66 0 0.0 0.0 0.00 0.00 0.00 48 1006.2
20260505050951 66 12 1.0 2.0 0.00 0.00 0.00 48 1006.4
20260505050449 66 23 0.0 2.0 0.00 0.00 0.00 49 1006.3
20260505041416 74 287 2.0 3.0 0.00 0.00 0.00 31 1006.3
20260505040913 73 308 5.0 5.0 0.00 0.00 0.00 32 1006.3
20260505040411 72 278 3.0 5.0 0.00 0.00 0.00 34 1006.3
20260505035907 71 276 2.0 3.0 0.00 0.00 0.00 35 1006.2
20260505035403 71 229 2.0 5.0 0.00 0.00 0.00 35 1006.7
20260505034901 70 185 1.0 3.0 0.00 0.00 0.00 36 1005.9
20260505034357 71 194 0.0 2.0 0.00 0.00 0.00 36 1006.0
20260505033855 72 253 2.0 3.0 0.00 0.00 0.00 34 1005.7
20260505033351 73 275 2.0 3.0 0.00 0.00 0.00 33 1005.6
20260505032849 74 270 0.0 3.0 0.00 0.00 0.00 31 1006.0
20260505032346 74 270 2.0 5.0 0.00 0.00 0.00 30 1005.5
20260505031842 75 270 0.0 6.0 0.00 0.00 0.00 28 1005.3
20260505031339 76 294 3.0 8.0 0.00 0.00 0.00 27 1005.2
20260505030837 76 263 3.0 7.0 0.00 0.00 0.00 27 1005.2
20260505030332 76 264 5.0 6.0 0.00 0.00 0.00 27 1004.9
20260505025828 76 233 3.0 6.0 0.00 0.00 0.00 27 1005.2
20260505025326 76 275 2.0 7.0 0.00 0.00 0.00 27 1005.1
20260505024824 76 287 2.0 4.0 0.00 0.00 0.00 29 1005.3
20260505024322 77 270 0.0 3.0 0.00 0.00 0.00 27 1004.9
20260505023818 78 283 3.0 4.0 0.00 0.00 0.00 25 1004.9
20260505023315 79 254 0.0 4.0 0.00 0.00 0.00 24 1004.5
20260505022813 79 285 1.0 5.0 0.00 0.00 0.00 23 1004.4
20260505022310 79 221 2.0 3.0 0.00 0.00 0.00 23 1004.7
20260505021807 80 236 2.0 3.0 0.00 0.00 0.00 22 1004.9
20260505021303 79 241 3.0 6.0 0.00 0.00 0.00 23 1005.1
20260505020759 80 239 6.0 8.0 0.00 0.00 0.00 22 1004.8
20260505020254 79 225 4.0 5.0 0.00 0.00 0.00 23 1005.1
20260505015752 79 312 2.0 7.0 0.00 0.00 0.00 23 1005.1
20260505015249 79 270 3.0 7.0 0.00 0.00 0.00 23 1005.1
20260505014746 78 344 3.0 6.0 0.00 0.00 0.00 24 1005.1
20260505014243 79 281 2.0 5.0 0.00 0.00 0.00 24 1004.8
20260505013739 79 292 2.0 6.0 0.00 0.00 0.00 24 1004.9
20260505013237 79 281 3.0 5.0 0.00 0.00 0.00 24 1004.8
20260505012735 79 285 0.0 4.0 0.00 0.00 0.00 25 1004.9
20260505012232 79 270 2.0 3.0 0.00 0.00 0.00 25 1004.9
20260505011728 79 270 0.0 2.0 0.00 0.00 0.00 25 1004.9
20260505011225 80 250 3.0 4.0 0.00 0.00 0.00 24 1005.0
20260505010721 80 257 0.0 3.0 0.00 0.00 0.00 24 1005.0
20260505010217 80 0 0.0 4.0 0.00 0.00 0.00 24 1004.8
20260505005714 80 251 0.0 4.0 0.00 0.00 0.00 23 1004.8
20260505005211 81 270 1.0 3.0 0.00 0.00 0.00 22 1004.8
20260505004708 81 291 1.0 5.0 0.00 0.00 0.00 21 1004.8
20260505004204 81 283 1.0 5.0 0.00 0.00 0.00 20 1004.8
20260505003702 82 291 1.0 9.0 0.00 0.00 0.00 19 1004.9
20260505003159 82 264 2.0 7.0 0.00 0.00 0.00 20 1005.0
20260505002655 82 264 3.0 8.0 0.00 0.00 0.00 19 1005.2
20260505002153 82 299 4.0 7.0 0.00 0.00 0.00 19 1004.9
20260505001650 82 301 6.0 10.0 0.00 0.00 0.00 19 1005.1
20260505001148 83 270 7.0 9.0 0.00 0.00 0.00 19 1005.2
20260505000644 83 253 5.0 8.0 0.00 0.00 0.00 19 1005.1
20260505000143 83 259 5.0 12.0 0.00 0.00 0.00 18 1005.1
20260504235638 83 247 6.0 9.0 0.00 0.00 0.00 18 1005.2
20260504235135 83 293 9.0 16.0 0.00 0.00 0.00 19 1005.0
20260504234632 83 255 7.0 17.0 0.00 0.00 0.00 18 1005.1
20260504234130 83 250 9.0 19.0 0.00 0.00 0.00 19 1005.0
20260504233625 83 257 13.0 16.0 0.00 0.00 0.00 19 1005.1
20260504233121 83 241 10.0 22.0 0.00 0.00 0.00 18 1005.0
20260504232619 83 308 9.0 13.0 0.00 0.00 0.00 18 1005.2
20260504232116 84 309 11.0 17.0 0.00 0.00 0.00 18 1004.9
20260504231613 84 253 14.0 18.0 0.00 0.00 0.00 18 1004.9
20260504231109 84 256 5.0 15.0 0.00 0.00 0.00 19 1005.2
20260504230605 85 294 8.0 14.0 0.00 0.00 0.00 18 1004.8
20260504230104 84 282 12.0 18.0 0.00 0.00 0.00 18 1005.1
20260504225601 85 251 8.0 19.0 0.00 0.00 0.00 17 1004.8
20260504225058 85 228 10.0 19.0 0.00 0.00 0.00 17 1005.3
20260504224555 84 257 8.0 14.0 0.00 0.00 0.00 18 1004.9
20260504224052 84 255 11.0 17.0 0.00 0.00 0.00 17 1005.1
20260504223549 84 273 4.0 17.0 0.00 0.00 0.00 16 1005.2
20260504223044 84 267 4.0 14.0 0.00 0.00 0.00 17 1005.1
20260504222542 84 247 4.0 18.0 0.00 0.00 0.00 17 1005.4
20260504222039 84 239 9.0 14.0 0.00 0.00 0.00 16 1005.0
20260504221536 83 266 7.0 25.0 0.00 0.00 0.00 16 1005.1
20260504221032 84 282 8.0 16.0 0.00 0.00 0.00 17 1005.2
20260504220529 84 239 14.0 23.0 0.00 0.00 0.00 17 1005.3
20260504220026 84 231 16.0 27.0 0.00 0.00 0.00 17 1005.3
20260504215523 84 248 6.0 21.0 0.00 0.00 0.00 17 1005.2
20260504215020 85 262 8.0 20.0 0.00 0.00 0.00 17 1005.4
20260504214516 85 230 12.0 15.0 0.00 0.00 0.00 16 1005.4
20260504214012 86 320 5.0 25.0 0.00 0.00 0.00 16 1005.3
20260504213509 86 247 16.0 21.0 0.00 0.00 0.00 16 1005.3
20260504213007 86 275 8.0 18.0 0.00 0.00 0.00 16 1005.5
20260504212502 86 247 5.0 11.0 0.00 0.00 0.00 16 1005.1
20260504212000 87 242 7.0 10.0 0.00 0.00 0.00 16 1005.4
20260504211456 86 289 2.0 11.0 0.00 0.00 0.00 16 1005.4
20260504210954 86 227 5.0 7.0 0.00 0.00 0.00 17 1005.5
20260504210450 87 278 6.0 10.0 0.00 0.00 0.00 17 1005.7
20260504205947 86 296 5.0 13.0 0.00 0.00 0.00 16 1006.1
20260504205444 87 278 4.0 10.0 0.00 0.00 0.00 17 1006.0
20260504204943 86 214 6.0 11.0 0.00 0.00 0.00 17 1006.1
20260504204441 86 313 6.0 10.0 0.00 0.00 0.00 17 1006.2
20260504203940 86 273 3.0 10.0 0.00 0.00 0.00 18 1006.4
20260504203437 86 310 3.0 12.0 0.00 0.00 0.00 19 1006.3
20260504202933 86 329 3.0 6.0 0.00 0.00 0.00 19 1006.4
20260504202430 85 280 4.0 12.0 0.00 0.00 0.00 18 1006.6
20260504201926 84 232 4.0 11.0 0.00 0.00 0.00 19 1006.5
20260504201424 84 324 3.0 8.0 0.00 0.00 0.00 19 1006.5
20260504200921 84 267 4.0 10.0 0.00 0.00 0.00 19 1006.8
20260504200418 85 275 6.0 13.0 0.00 0.00 0.00 20 1006.8
20260504195915 84 254 4.0 16.0 0.00 0.00 0.00 20 1006.6
20260504195410 84 280 4.0 10.0 0.00 0.00 0.00 19 1006.8
20260504194907 85 308 2.0 10.0 0.00 0.00 0.00 20 1007.1
20260504194403 84 315 3.0 7.0 0.00 0.00 0.00 19 1006.9
20260504193859 85 286 1.0 7.0 0.00 0.00 0.00 19 1007.1
20260504193356 84 248 8.0 13.0 0.00 0.00 0.00 19 1007.4
20260504192855 84 259 2.0 9.0 0.00 0.00 0.00 20 1007.2
20260504192352 84 258 4.0 9.0 0.00 0.00 0.00 19 1007.1
20260504191850 85 228 5.0 8.0 0.00 0.00 0.00 20 1007.3
20260504191348 84 227 5.0 8.0 0.00 0.00 0.00 19 1007.2
20260504190843 84 262 4.0 10.0 0.00 0.00 0.00 19 1007.5
20260504190339 84 247 9.0 12.0 0.00 0.00 0.00 20 1007.4
20260504185836 85 355 2.0 10.0 0.00 0.00 0.00 20 1007.5
20260504185333 84 213 5.0 8.0 0.00 0.00 0.00 20 1007.8
20260504184829 84 261 1.0 5.0 0.00 0.00 0.00 20 1007.7
20260504184325 84 281 3.0 7.0 0.00 0.00 0.00 20 1008.0
20260504183821 84 252 4.0 9.0 0.00 0.00 0.00 20 1007.8
20260504183319 84 303 5.0 7.0 0.00 0.00 0.00 20 1007.9
20260504182816 83 303 3.0 7.0 0.00 0.00 0.00 21 1008.0
20260504182314 83 294 1.0 13.0 0.00 0.00 0.00 21 1008.0
20260504181811 82 254 3.0 11.0 0.00 0.00 0.00 22 1007.8
20260504181308 83 294 2.0 10.0 0.00 0.00 0.00 23 1008.0
20260504180807 83 321 3.0 10.0 0.00 0.00 0.00 24 1008.2
20260504180305 82 244 5.0 11.0 0.00 0.00 0.00 24 1008.4
20260504175803 81 263 3.0 16.0 0.00 0.00 0.00 25 1008.0
20260504175259 81 235 8.0 11.0 0.00 0.00 0.00 25 1008.5
20260504174757 81 251 12.0 13.0 0.00 0.00 0.00 25 1008.7
20260504174255 81 249 4.0 13.0 0.00 0.00 0.00 27 1008.5
20260504173751 81 247 5.0 15.0 0.00 0.00 0.00 27 1008.8
20260504173248 81 238 4.0 15.0 0.00 0.00 0.00 28 1008.6
20260504172745 81 264 7.0 11.0 0.00 0.00 0.00 28 1008.7
20260504172241 80 246 6.0 13.0 0.00 0.00 0.00 27 1008.8
20260504171737 80 225 10.0 15.0 0.00 0.00 0.00 29 1009.0
20260504171235 80 251 6.0 8.0 0.00 0.00 0.00 29 1008.9
20260504170732 80 246 5.0 7.0 0.00 0.00 0.00 29 1009.0
20260504170229 80 225 3.0 11.0 0.00 0.00 0.00 29 1009.0
20260504160147 74 155 3.0 5.0 0.00 0.00 0.00 50 1009.7